Weather History for McGuire AFB, NJ

Change the Weather History Date:

Saturday, January 19, 2013

  Actual Average Record
Temperature  
Mean Temperature 38 °F -  
Max Temperature 52 °F 35 °F 52 °F (2013)
Min Temperature 23 °F 20 °F 3 °F (2003)
Degree Days  
Heating Degree Days 28    
Moisture  
Dew Point 24 °F    
Average Humidity 58    
Maximum Humidity 78    
Minimum Humidity 35    
Precipitation  
Precipitation 0.00 in - - ()
Sea Level Pressure  
Sea Level Pressure 30.20 in    
Wind  
Wind Speed 12 mph (SSW)    
Max Wind Speed 21 mph    
Max Gust Speed 26 mph    
Visibility 10 miles    
Events      
Averages and records for this station are not official NWS values.
T = Trace of Precipitation, MM = Missing Value Source: NWS Daily Summary

Daily Weather History Graph

Daily Weather History Graph

Search for Another Location

Airport:

Trip Planner

Search our weather history database for the weather conditions in past years. The results will help you decide how hot, cold, wet, or windy it might be!

Date:

Astronomy

Jan. 19, 2013 Rise Set
Actual Time 7:16 AM EST 5:02 PM EST
Civil Twilight 6:46 AM EST 5:31 PM EST
Nautical Twilight 6:13 AM EST 6:05 PM EST
Astronomical Twilight 5:41 AM EST 6:37 PM EST
Moon 11:27 AM EST (1/19) 12:48 AM EST (1/19)
Length of Visible Light 10h 44m
Length of Day
9h 45m
First Quarter, 57% of the Moon is Illuminated
Jan 19
First Quarter
Jan 26
Full
Feb 3
Last Quarter
Feb 10
New
Feb 17
First Quarter

Hourly Weather History & Observations

Time (EST) Temp. Windchill Dew Point Humidity Pressure Visibility Wind Dir Wind Speed Gust Speed Precip Events Conditions
12:55 AM 23.9 °F 15.0 °F 12.7 °F 62% 30.41 in 10.0 mi SSW 8.1 mph - N/A   Clear
1:55 AM 25.7 °F 17.1 °F 14.9 °F 64% 30.40 in 10.0 mi SSW 8.1 mph - N/A   Clear
2:55 AM 26.6 °F 19.1 °F 16.7 °F 66% 30.38 in 10.0 mi SSW 6.9 mph - N/A   Clear
3:55 AM 27.7 °F 18.2 °F 18.0 °F 67% 30.35 in 10.0 mi SSW 10.4 mph - N/A   Clear
4:55 AM 27.5 °F 15.9 °F 19.0 °F 71% 30.34 in 10.0 mi SSW 15.0 mph - N/A   Clear
5:55 AM 27.9 °F 17.8 °F 20.7 °F 74% 30.34 in 10.0 mi SSW 11.5 mph - N/A   Clear
6:55 AM 28.6 °F 18.2 °F 22.6 °F 78% 30.32 in 10.0 mi SSW 12.7 mph - N/A   Clear
7:55 AM 30.4 °F 21.5 °F 24.3 °F 78% 30.32 in 10.0 mi SSW 10.4 mph - N/A   Clear
8:55 AM 35.2 °F 26.6 °F 26.4 °F 70% 30.31 in 10.0 mi SW 12.7 mph - N/A   Clear
9:55 AM 40.6 °F 32.0 °F 27.0 °F 58% 30.31 in 10.0 mi SW 17.3 mph - N/A   Clear
10:55 AM 44.4 °F 36.4 °F 25.0 °F 46% 30.27 in 10.0 mi SW 19.6 mph 26.5 mph N/A   Clear
11:55 AM 47.8 °F - 24.1 °F 39% 30.22 in 10.0 mi SW 20.7 mph - N/A   Clear
12:55 PM 50.0 °F - 25.2 °F 38% 30.18 in 10.0 mi WSW 20.7 mph - N/A   Clear
1:55 PM 52.2 °F - 25.3 °F 35% 30.14 in 10.0 mi SW 17.3 mph - N/A   Clear
2:55 PM 52.7 °F - 26.1 °F 36% 30.12 in 10.0 mi SSW 16.1 mph - N/A   Clear
3:55 PM 51.4 °F - 25.7 °F 37% 30.10 in 10.0 mi SSW 18.4 mph - N/A   Clear
4:55 PM 47.5 °F - 26.6 °F 44% 30.09 in 10.0 mi SSW 11.5 mph - N/A   Clear
5:55 PM 43.0 °F 38.2 °F 26.8 °F 53% 30.08 in 10.0 mi SSW 8.1 mph - N/A   Clear
6:55 PM 39.6 °F 33.5 °F 26.4 °F 59% 30.08 in 10.0 mi SSW 9.2 mph - N/A   Clear
7:55 PM 40.1 °F 33.6 °F 26.6 °F 59% 30.06 in 10.0 mi SSW 10.4 mph - N/A   Clear
8:55 PM 39.2 °F 32.0 °F 27.0 °F 62% 30.04 in 10.0 mi SSW 11.5 mph - N/A   Clear
9:55 PM 38.7 °F 30.9 °F 27.3 °F 64% 30.01 in 10.0 mi SSW 12.7 mph - N/A   Clear
10:55 PM 38.8 °F 31.2 °F 27.0 °F 62% 29.98 in 10.0 mi SSW 12.7 mph - N/A   Clear
11:55 PM 39.4 °F 31.1 °F 27.5 °F 62% 29.94 in 10.0 mi SSW 15.0 mph - N/A   Clear